Total_Precipitation_Accumulation
0.00 0.00 0.00 0.00 0.00 0.00 0.00 0.00 0.00 0.00 0.00 0.00 0.00 0.00 0.00 0.00 0.00 0.00 0.00 0.00 0.00 0.00 0.00 0.00 0.00 0.00 0.00 0.00 0.02 0.00 0.00 0.02 0.03 0.30 0.87 1.39 1.34 2.20 1.99 1.74 2.22 2.12 2.57 3.27
0.00 0.00 0.00 0.00 0.00 0.00 0.00 0.00 0.00 0.00 0.00 0.00 0.00 0.00 0.00 0.00 0.00 0.00 0.00 0.00 0.00 0.00 0.00 0.00 0.00 0.00 0.00 0.00 0.02 0.02 0.01 0.02 0.05 0.07 0.71 1.13 1.43 1.79 2.43 2.10 2.28 2.34 2.07 3.05
0.00 0.00 0.00 0.00 0.00 0.00 0.00 0.00 0.00 0.00 0.00 0.00 0.00 0.00 0.00 0.00 0.00 0.00 0.00 0.00 0.00 0.00 0.00 0.00 0.00 0.00 0.00 0.01 0.01 0.04 0.02 0.01 0.04 0.04 0.32 1.38 1.48 1.75 2.17 2.05 1.80 1.89 1.96 2.42
0.00 0.00 0.00 0.00 0.00 0.00 0.00 0.00 0.00 0.00 0.00 0.00 0.00 0.00 0.00 0.00 0.00 0.00 0.00 0.00 0.00 0.00 0.00 0.00 0.00 0.00 0.00 0.00 0.00 0.02 0.04 0.02 0.02 0.03 0.14 1.01 1.97 1.88 2.10 2.02 1.62 1.55 1.56 2.02
0.00 0.00 0.00 0.00 0.00 0.00 0.00 0.00 0.00 0.00 0.00 0.00 0.00 0.00 0.00 0.00 0.00 0.00 0.00 0.00 0.00 0.00 0.00 0.00 0.00 0.00 0.00 0.00 0.00 0.00 0.02 0.03 0.01 0.03 0.11 0.55 1.17 1.78 2.24 2.06 1.78 1.40 1.24 1.40
0.00 0.00 0.00 0.00 0.00 0.00 0.00 0.00 0.00 0.00 0.00 0.00 0.00 0.00 0.00 0.00 0.00 0.00 0.00 0.00 0.00 0.00 0.00 0.00 0.00 0.00 0.00 0.00 0.00 0.00 0.01 0.03 0.02 0.01 0.10 0.37 0.64 1.46 2.26 2.56 1.90 1.42 1.07 1.02
0.00 0.00 0.00 0.00 0.00 0.00 0.00 0.00 0.00 0.00 0.00 0.00 0.00 0.00 0.00 0.00 0.00 0.00 0.00 0.00 0.00 0.00 0.00 0.00 0.00 0.00 0.00 0.00 0.00 0.00 0.01 0.04 0.03 0.01 0.04 0.20 0.37 0.85 1.63 2.50 1.88 1.56 1.35 1.02
0.00 0.00 0.00 0.00 0.00 0.00 0.00 0.00 0.00 0.00 0.00 0.00 0.00 0.00 0.00 0.00 0.00 0.00 0.00 0.00 0.00 0.00 0.00 0.00 0.00 0.00 0.00 0.00 0.00 0.00 0.00 0.03 0.04 0.01 0.01 0.10 0.24 0.48 1.21 1.70 1.85 1.41 1.30 1.26
0.00 0.00 0.00 0.00 0.00 0.00 0.00 0.00 0.00 0.02 0.00 0.01 0.00 0.00 0.00 0.00 0.00 0.00 0.00 0.00 0.00 0.00 0.00 0.00 0.00 0.00 0.00 0.00 0.00 0.00 0.00 0.01 0.04 0.01 0.00 0.03 0.17 0.46 0.94 1.19 1.65 1.24 1.01 1.10
0.00 0.00 0.00 0.00 0.00 0.00 0.00 0.00 0.00 0.01 0.03 0.01 0.00 0.00 0.00 0.00 0.00 0.00 0.00 0.00 0.01 0.01 0.00 0.00 0.00 0.00 0.00 0.00 0.00 0.00 0.00 0.00 0.03 0.01 0.00 0.00 0.12 0.33 0.95 1.08 1.15 1.25 0.95 0.81
0.00 0.02 0.00 0.00 0.00 0.00 0.00 0.00 0.01 0.02 0.01 0.06 0.03 0.00 0.00 0.00 0.01 0.03 0.04 0.03 0.04 0.05 0.03 0.01 0.01 0.01 0.00 0.00 0.00 0.00 0.01 0.00 0.01 0.00 0.00 0.00 0.04 0.19 0.87 1.24 0.87 0.91 0.81 0.73
0.00 0.02 0.01 0.00 0.00 0.00 0.00 0.00 0.02 0.04 0.03 0.05 0.08 0.03 0.01 0.01 0.01 0.07 0.16 0.13 0.09 0.08 0.04 0.03 0.02 0.01 0.02 0.02 0.02 0.01 0.00 0.00 0.00 0.00 0.00 0.00 0.01 0.10 0.69 1.27 0.85 0.63 0.79 0.68
0.00 0.00 0.00 0.00 0.00 0.00 0.00 0.01 0.04 0.07 0.09 0.06 0.10 0.02 0.00 0.00 0.00 0.02 0.10 0.15 0.12 0.10 0.06 0.05 0.04 0.06 0.06 0.03 0.03 0.01 0.01 0.01 0.00 0.00 0.00 0.00 0.03 0.10 0.54 1.09 0.89 0.51 0.63 0.85
0.00 0.00 0.00 0.00 0.00 0.00 0.00 0.00 0.02 0.07 0.08 0.04 0.02 0.02 0.00 0.01 0.04 0.08 0.14 0.14 0.12 0.11 0.15 0.18 0.21 0.10 0.04 0.04 0.03 0.02 0.01 0.01 0.00 0.00 0.01 0.01 0.04 0.08 0.29 0.90 0.78 0.45 0.51 0.79
0.00 0.00 0.00 0.00 0.00 0.00 0.00 0.00 0.01 0.02 0.00 0.03 0.01 0.01 0.00 0.04 0.14 0.20 0.29 0.20 0.18 0.16 0.23 0.24 0.23 0.15 0.07 0.05 0.04 0.03 0.03 0.02 0.01 0.01 0.02 0.02 0.05 0.10 0.21 0.66 0.62 0.45 0.48 0.68
0.00 0.00 0.00 0.00 0.00 0.00 0.00 0.00 0.00 0.00 0.00 0.00 0.01 0.01 0.00 0.01 0.04 0.15 0.20 0.21 0.36 0.39 0.27 0.21 0.27 0.16 0.10 0.09 0.10 0.08 0.04 0.03 0.03 0.05 0.03 0.02 0.10 0.14 0.27 0.45 0.70 0.62 0.72 0.78
0.00 0.00 0.00 0.00 0.00 0.00 0.00 0.00 0.00 0.00 0.00 0.00 0.02 0.01 0.03 0.10 0.11 0.25 0.40 0.76 0.80 0.62 0.56 0.62 0.51 0.32 0.21 0.16 0.16 0.15 0.08 0.07 0.07 0.09 0.05 0.04 0.10 0.14 0.29 0.50 0.45 0.76 0.90 0.98
0.00 0.00 0.00 0.00 0.00 0.00 0.00 0.00 0.00 0.00 0.00 0.00 0.00 0.00 0.02 0.06 0.03 0.09 0.46 1.03 1.06 1.09 1.06 1.06 0.82 0.52 0.22 0.17 0.12 0.11 0.13 0.18 0.14 0.12 0.08 0.08 0.10 0.15 0.24 0.51 0.47 0.44 0.76 0.98
0.00 0.00 0.00 0.00 0.00 0.00 0.00 0.00 0.00 0.00 0.00 0.00 0.00 0.00 0.01 0.01 0.01 0.00 0.02 0.25 0.68 1.21 1.39 1.41 1.35 0.97 0.50 0.30 0.21 0.21 0.17 0.16 0.14 0.13 0.12 0.12 0.09 0.17 0.17 0.30 0.43 0.35 0.49 0.96
0.00 0.00 0.00 0.00 0.01 0.00 0.00 0.00 0.00 0.00 0.00 0.00 0.00 0.01 0.04 0.09 0.22 0.13 0.19 0.44 0.79 1.12 1.49 1.70 1.44 0.87 0.52 0.35 0.26 0.19 0.16 0.14 0.15 0.14 0.10 0.08 0.10 0.12 0.09 0.18 0.32 0.32 0.37 0.58
0.00 0.01 0.01 0.00 0.01 0.00 0.00 0.00 0.00 0.00 0.00 0.00 0.00 0.02 0.09 0.16 0.24 0.26 0.35 0.47 0.65 0.95 1.50 1.60 1.09 0.82 0.60 0.61 0.51 0.23 0.20 0.25 0.29 0.14 0.09 0.06 0.10 0.07 0.10 0.18 0.29 0.28 0.37 0.54
0.00 0.03 0.02 0.02 0.02 0.00 0.00 0.00 0.00 0.00 0.00 0.00 0.01 0.01 0.08 0.04 0.03 0.07 0.20 0.35 0.69 0.98 1.57 2.02 1.75 1.35 1.31 1.11 0.81 0.61 0.54 0.55 0.34 0.22 0.17 0.11 0.14 0.12 0.17 0.27 0.31 0.32 0.32 0.48
0.00 0.00 0.01 0.01 0.01 0.00 0.00 0.00 0.00 0.00 0.00 0.00 0.04 0.02 0.05 0.06 0.03 0.04 0.14 0.27 0.52 0.87 1.66 2.57 2.65 2.11 1.52 1.11 0.93 0.99 0.88 0.64 0.43 0.36 0.26 0.24 0.23 0.20 0.19 0.25 0.33 0.33 0.32 0.33
0.00 0.01 0.02 0.00 0.00 0.00 0.00 0.00 0.00 0.00 0.00 0.00 0.01 0.02 0.02 0.07 0.02 0.04 0.05 0.17 0.41 0.70 1.57 2.56 2.32 1.96 1.55 1.43 1.19 1.14 1.01 0.64 0.59 0.49 0.38 0.37 0.28 0.29 0.23 0.24 0.36 0.34 0.27 0.20
0.00 0.01 0.01 0.01 0.00 0.00 0.00 0.00 0.00 0.00 0.00 0.00 0.00 0.00 0.01 0.05 0.03 0.04 0.04 0.09 0.30 0.67 1.10 2.09 2.49 2.41 1.98 1.77 1.62 1.41 1.07 0.83 0.59 0.51 0.44 0.36 0.35 0.34 0.28 0.25 0.35 0.37 0.30 0.23
0.00 0.00 0.00 0.01 0.00 0.00 0.00 0.00 0.00 0.00 0.00 0.00 0.02 0.02 0.00 0.02 0.04 0.03 0.03 0.03 0.24 0.52 0.86 1.44 2.13 2.35 2.18 2.02 1.91 1.51 1.40 1.15 0.74 0.60 0.42 0.41 0.35 0.38 0.29 0.28 0.35 0.48 0.41 0.33